Time,TemperatureF,DewpointF,PressureIn,WindDirection,WindDirectionDegrees,WindSpeedMPH,WindSpeedGustMPH,Humidity,HourlyPrecipIn,Conditions,Clouds,dailyrainin,SoftwareType,DateUTC
2013-04-11 00:00:00,69.9,58.9,29.86,SSW,211,0.0,1.0,68,0.00,,CLR,0.00,VWS V14.00,2013-04-11 04:00:00,
2013-04-11 00:05:00,69.7,58.7,29.87,SSW,211,0.0,0.0,68,0.00,,CLR,0.00,VWS V14.00,2013-04-11 04:05:00,
2013-04-11 00:10:00,69.6,58.6,29.87,SSW,211,0.0,1.0,68,0.00,,CLR,0.00,VWS V14.00,2013-04-11 04:10:00,
2013-04-11 00:15:00,69.5,58.5,29.87,SSW,211,0.0,1.0,68,0.00,,CLR,0.00,VWS V14.00,2013-04-11 04:15:00,
2013-04-11 00:20:00,69.5,58.5,29.88,SSW,211,0.0,1.0,68,0.00,,CLR,0.00,VWS V14.00,2013-04-11 04:20:00,
2013-04-11 00:25:00,69.3,58.7,29.88,SSW,211,0.0,1.0,69,0.00,,CLR,0.00,VWS V14.00,2013-04-11 04:25:00,
2013-04-11 00:30:00,69.1,58.5,29.88,SSW,211,0.0,1.0,69,0.00,,CLR,0.00,VWS V14.00,2013-04-11 04:30:00,
2013-04-11 00:35:00,68.8,58.6,29.88,SSW,211,1.0,1.0,70,0.00,,CLR,0.00,VWS V14.00,2013-04-11 04:35:00,
2013-04-11 00:40:00,68.5,58.3,29.88,SSW,211,0.0,1.0,70,0.00,,CLR,0.00,VWS V14.00,2013-04-11 04:40:00,
2013-04-11 00:45:00,68.4,58.6,29.88,SSW,211,0.0,1.0,71,0.00,,CLR,0.00,VWS V14.00,2013-04-11 04:45:00,
2013-04-11 00:50:00,68.2,58.5,29.88,SSW,211,0.0,1.0,71,0.00,,CLR,0.00,VWS V14.00,2013-04-11 04:50:00,
2013-04-11 00:55:00,68.0,58.3,29.88,SSW,211,0.0,1.0,71,0.00,,CLR,0.00,VWS V14.00,2013-04-11 04:55:00,
2013-04-11 01:00:00,67.8,58.1,29.88,SSW,211,0.0,1.0,71,0.00,,CLR,0.00,VWS V14.00,2013-04-11 05:00:00,
2013-04-11 01:05:00,67.4,58.1,29.88,SSW,211,0.0,1.0,72,0.00,,CLR,0.00,VWS V14.00,2013-04-11 05:05:00,
2013-04-11 01:10:00,67.0,57.7,29.88,SSW,211,0.0,1.0,72,0.00,,CLR,0.00,VWS V14.00,2013-04-11 05:10:00,
2013-04-11 01:15:00,66.6,57.7,29.88,SSW,211,0.0,1.0,73,0.00,,CLR,0.00,VWS V14.00,2013-04-11 05:15:00,
2013-04-11 01:20:00,66.4,57.5,29.88,SSW,211,0.0,1.0,73,0.00,,CLR,0.00,VWS V14.00,2013-04-11 05:20:00,
2013-04-11 01:25:00,66.2,57.7,29.88,SSW,211,0.0,1.0,74,0.00,,CLR,0.00,VWS V14.00,2013-04-11 05:25:00,
2013-04-11 01:30:00,66.1,57.6,29.88,SSW,211,0.0,1.0,74,0.00,,CLR,0.00,VWS V14.00,2013-04-11 05:30:00,
2013-04-11 01:35:00,66.0,57.9,29.88,SSW,211,1.0,1.0,75,0.00,,CLR,0.00,VWS V14.00,2013-04-11 05:35:00,
2013-04-11 01:40:00,66.0,58.2,29.88,SSW,211,0.0,2.0,76,0.00,,CLR,0.00,VWS V14.00,2013-04-11 05:40:00,
2013-04-11 01:45:00,65.9,58.1,29.88,SSW,211,0.0,2.0,76,0.00,,CLR,0.00,VWS V14.00,2013-04-11 05:45:00,
2013-04-11 01:50:00,65.8,58.0,29.88,SSW,211,0.0,2.0,76,0.00,,CLR,0.00,VWS V14.00,2013-04-11 05:50:00,
2013-04-11 01:55:00,65.7,57.9,29.88,SSW,211,0.0,2.0,76,0.00,,CLR,0.00,VWS V14.00,2013-04-11 05:55:00,
2013-04-11 02:00:00,65.5,58.1,29.88,SSW,211,0.0,2.0,77,0.00,,CLR,0.00,VWS V14.00,2013-04-11 06:00:00,
2013-04-11 02:05:00,65.3,57.9,29.88,SSW,211,0.0,0.0,77,0.00,,CLR,0.00,VWS V14.00,2013-04-11 06:05:00,
2013-04-11 02:10:00,65.1,57.7,29.88,SSW,211,0.0,0.0,77,0.00,,CLR,0.00,VWS V14.00,2013-04-11 06:10:00,
2013-04-11 02:15:00,65.0,57.6,29.88,SSW,211,0.0,1.0,77,0.00,,CLR,0.00,VWS V14.00,2013-04-11 06:15:00,
2013-04-11 02:20:00,65.0,57.6,29.88,SSW,211,0.0,1.0,77,0.00,,CLR,0.00,VWS V14.00,2013-04-11 06:20:00,
2013-04-11 02:25:00,65.2,57.8,29.88,SSW,211,0.0,1.0,77,0.00,,CLR,0.00,VWS V14.00,2013-04-11 06:25:00,
2013-04-11 02:30:00,65.3,57.9,29.88,SSW,211,0.0,1.0,77,0.00,,CLR,0.00,VWS V14.00,2013-04-11 06:30:00,
2013-04-11 02:35:00,65.3,58.3,29.88,SSW,211,0.0,0.0,78,0.00,,CLR,0.00,VWS V14.00,2013-04-11 06:35:00,
2013-04-11 02:40:00,65.2,57.8,29.88,SSW,211,0.0,1.0,77,0.00,,CLR,0.00,VWS V14.00,2013-04-11 06:40:00,
2013-04-11 02:45:00,65.0,58.0,29.88,SSW,211,0.0,1.0,78,0.00,,CLR,0.00,VWS V14.00,2013-04-11 06:45:00,
2013-04-11 02:50:00,64.9,57.9,29.87,SSW,211,0.0,2.0,78,0.00,,CLR,0.00,VWS V14.00,2013-04-11 06:50:00,
2013-04-11 02:55:00,64.8,58.1,29.87,SSW,211,0.0,2.0,79,0.00,,CLR,0.00,VWS V14.00,2013-04-11 06:55:00,
2013-04-11 03:00:00,64.6,58.0,29.87,SSW,211,0.0,2.0,79,0.00,,CLR,0.00,VWS V14.00,2013-04-11 07:00:00,
2013-04-11 03:05:00,64.5,57.8,29.87,SSW,211,0.0,0.0,79,0.00,,CLR,0.00,VWS V14.00,2013-04-11 07:05:00,
2013-04-11 03:10:00,64.3,58.0,29.87,SSW,211,0.0,0.0,80,0.00,,CLR,0.00,VWS V14.00,2013-04-11 07:10:00,
2013-04-11 03:15:00,64.2,57.9,29.87,WSW,245,0.0,4.0,80,0.00,,CLR,0.00,VWS V14.00,2013-04-11 07:15:00,
2013-04-11 03:20:00,64.0,58.1,29.87,WSW,245,0.0,4.0,81,0.00,,CLR,0.00,VWS V14.00,2013-04-11 07:20:00,
2013-04-11 03:25:00,63.9,58.3,29.87,WSW,245,0.0,4.0,82,0.00,,CLR,0.00,VWS V14.00,2013-04-11 07:25:00,
2013-04-11 03:30:00,63.8,58.2,29.87,WSW,245,0.0,4.0,82,0.00,,CLR,0.00,VWS V14.00,2013-04-11 07:30:00,
2013-04-11 03:35:00,63.7,58.5,29.87,WSW,245,0.0,1.0,83,0.00,,CLR,0.00,VWS V14.00,2013-04-11 07:35:00,
2013-04-11 03:40:00,63.6,58.3,29.87,WSW,245,0.0,1.0,83,0.00,,CLR,0.00,VWS V14.00,2013-04-11 07:40:00,
2013-04-11 03:45:00,63.6,58.3,29.87,WSW,245,0.0,1.0,83,0.00,,CLR,0.00,VWS V14.00,2013-04-11 07:45:00,
2013-04-11 03:50:00,63.6,58.7,29.87,WSW,245,0.0,2.0,84,0.00,,CLR,0.00,VWS V14.00,2013-04-11 07:50:00,
2013-04-11 03:55:00,63.5,58.6,29.87,WSW,245,0.0,2.0,84,0.00,,CLR,0.00,VWS V14.00,2013-04-11 07:55:00,
2013-04-11 04:00:00,63.5,58.9,29.87,WSW,245,1.0,3.0,85,0.00,,CLR,0.00,VWS V14.00,2013-04-11 08:00:00,
2013-04-11 04:05:00,63.5,58.9,29.86,WSW,245,0.0,1.0,85,0.00,,CLR,0.00,VWS V14.00,2013-04-11 08:05:00,
2013-04-11 04:10:00,63.4,58.8,29.86,WSW,245,0.0,2.0,85,0.00,,CLR,0.00,VWS V14.00,2013-04-11 08:10:00,
2013-04-11 04:15:00,63.3,58.7,29.86,WSW,245,0.0,2.0,85,0.00,,CLR,0.00,VWS V14.00,2013-04-11 08:15:00,
2013-04-11 04:20:00,63.2,58.6,29.86,WSW,245,0.0,2.0,85,0.00,,CLR,0.00,VWS V14.00,2013-04-11 08:20:00,
2013-04-11 04:25:00,63.0,58.8,29.86,WSW,245,0.0,2.0,86,0.00,,CLR,0.00,VWS V14.00,2013-04-11 08:25:00,
2013-04-11 04:30:00,62.9,58.7,29.86,WSW,245,0.0,2.0,86,0.00,,CLR,0.00,VWS V14.00,2013-04-11 08:30:00,
2013-04-11 04:35:00,62.9,58.7,29.86,WSW,245,0.0,1.0,86,0.00,,CLR,0.00,VWS V14.00,2013-04-11 08:35:00,
2013-04-11 04:40:00,62.8,58.6,29.86,WSW,245,0.0,1.0,86,0.00,,CLR,0.00,VWS V14.00,2013-04-11 08:40:00,
2013-04-11 04:45:00,62.8,58.9,29.86,WSW,245,0.0,1.0,87,0.00,,CLR,0.00,VWS V14.00,2013-04-11 08:45:00,
2013-04-11 04:50:00,62.6,58.7,29.86,WSW,245,0.0,1.0,87,0.00,,CLR,0.00,VWS V14.00,2013-04-11 08:50:00,
2013-04-11 04:55:00,62.6,58.7,29.86,WSW,245,0.0,1.0,87,0.00,,CLR,0.00,VWS V14.00,2013-04-11 08:55:00,
2013-04-11 05:00:00,62.5,58.9,29.86,WSW,245,0.0,1.0,88,0.00,,CLR,0.00,VWS V14.00,2013-04-11 09:00:00,
2013-04-11 05:05:00,62.4,58.8,29.85,WSW,245,1.0,1.0,88,0.00,,CLR,0.00,VWS V14.00,2013-04-11 09:05:00,
2013-04-11 05:10:00,62.3,58.7,29.85,WSW,245,0.0,2.0,88,0.00,,CLR,0.00,VWS V14.00,2013-04-11 09:10:00,
2013-04-11 05:15:00,62.2,58.6,29.85,WSW,245,0.0,2.0,88,0.00,,CLR,0.00,VWS V14.00,2013-04-11 09:15:00,
2013-04-11 05:20:00,62.1,58.8,29.86,WSW,245,0.0,2.0,89,0.00,,CLR,0.00,VWS V14.00,2013-04-11 09:20:00,
2013-04-11 05:25:00,62.0,58.7,29.86,WSW,245,0.0,2.0,89,0.00,,CLR,0.00,VWS V14.00,2013-04-11 09:25:00,
2013-04-11 05:30:00,61.9,58.6,29.86,WSW,245,0.0,2.0,89,0.00,,CLR,0.00,VWS V14.00,2013-04-11 09:30:00,
2013-04-11 05:35:00,61.7,58.4,29.87,WSW,245,0.0,0.0,89,0.00,,CLR,0.00,VWS V14.00,2013-04-11 09:35:00,
2013-04-11 05:40:00,61.6,58.6,29.87,WSW,245,0.0,0.0,90,0.00,,CLR,0.00,VWS V14.00,2013-04-11 09:40:00,
2013-04-11 05:45:00,61.4,58.5,29.87,WSW,245,0.0,0.0,90,0.00,,CLR,0.00,VWS V14.00,2013-04-11 09:45:00,
2013-04-11 05:50:00,61.2,58.2,29.87,WSW,245,0.0,0.0,90,0.00,,CLR,0.00,VWS V14.00,2013-04-11 09:50:00,
2013-04-11 05:55:00,61.0,58.0,29.87,WSW,245,0.0,0.0,90,0.00,,CLR,0.00,VWS V14.00,2013-04-11 09:55:00,
2013-04-11 06:00:00,60.7,57.8,29.87,WSW,245,0.0,0.0,90,0.00,,CLR,0.00,VWS V14.00,2013-04-11 10:00:00,
2013-04-11 06:05:00,60.5,57.9,29.87,WSW,245,0.0,0.0,91,0.00,,CLR,0.00,VWS V14.00,2013-04-11 10:05:00,
2013-04-11 06:10:00,60.4,58.1,29.87,WSW,245,0.0,0.0,92,0.00,,CLR,0.00,VWS V14.00,2013-04-11 10:10:00,
2013-04-11 06:15:00,60.5,58.8,29.87,WSW,245,0.0,1.0,94,0.00,,CLR,0.00,VWS V14.00,2013-04-11 10:15:00,
2013-04-11 06:20:00,60.5,58.2,29.87,WSW,245,0.0,1.0,92,0.00,,CLR,0.00,VWS V14.00,2013-04-11 10:20:00,
2013-04-11 06:25:00,60.5,58.2,29.87,WSW,245,0.0,1.0,92,0.00,,CLR,0.00,VWS V14.00,2013-04-11 10:25:00,
2013-04-11 06:30:00,60.5,58.2,29.87,WSW,245,0.0,1.0,92,0.00,,CLR,0.00,VWS V14.00,2013-04-11 10:30:00,
2013-04-11 06:35:00,60.6,58.3,29.88,WSW,245,0.0,0.0,92,0.00,,CLR,0.00,VWS V14.00,2013-04-11 10:35:00,
2013-04-11 06:40:00,60.7,58.4,29.88,WSW,245,0.0,0.0,92,0.00,,CLR,0.00,VWS V14.00,2013-04-11 10:40:00,
2013-04-11 06:45:00,60.8,58.5,29.88,WSW,245,0.0,0.0,92,0.00,,CLR,0.00,VWS V14.00,2013-04-11 10:45:00,
2013-04-11 06:50:00,60.8,58.2,29.88,WSW,245,0.0,0.0,91,0.00,,CLR,0.00,VWS V14.00,2013-04-11 10:50:00,
2013-04-11 06:55:00,60.8,58.2,29.88,WSW,245,0.0,0.0,91,0.00,,CLR,0.00,VWS V14.00,2013-04-11 10:55:00,
2013-04-11 07:00:00,60.8,58.2,29.88,WSW,245,0.0,0.0,91,0.00,,CLR,0.00,VWS V14.00,2013-04-11 11:00:00,
2013-04-11 07:05:00,60.9,58.3,29.88,WSW,245,0.0,0.0,91,0.00,,CLR,0.00,VWS V14.00,2013-04-11 11:05:00,
2013-04-11 07:10:00,61.1,58.5,29.88,WSW,245,0.0,1.0,91,0.00,,CLR,0.00,VWS V14.00,2013-04-11 11:10:00,
2013-04-11 07:15:00,61.2,58.6,29.88,WSW,245,0.0,1.0,91,0.00,,CLR,0.00,VWS V14.00,2013-04-11 11:15:00,
2013-04-11 07:20:00,61.3,58.7,29.88,WSW,245,0.0,2.0,91,0.00,,CLR,0.00,VWS V14.00,2013-04-11 11:20:00,
2013-04-11 07:25:00,61.3,58.7,29.88,WSW,245,0.0,2.0,91,0.00,,CLR,0.00,VWS V14.00,2013-04-11 11:25:00,
2013-04-11 07:30:00,61.4,58.8,29.88,WSW,245,0.0,2.0,91,0.00,,CLR,0.00,VWS V14.00,2013-04-11 11:30:00,
2013-04-11 07:35:00,61.4,58.8,29.88,WSW,245,0.0,1.0,91,0.00,,CLR,0.00,VWS V14.00,2013-04-11 11:35:00,
2013-04-11 07:40:00,61.6,59.0,29.88,WSW,245,0.0,1.0,91,0.00,,CLR,0.00,VWS V14.00,2013-04-11 11:40:00,
2013-04-11 07:45:00,61.7,59.4,29.88,WSW,245,0.0,1.0,92,0.00,,CLR,0.00,VWS V14.00,2013-04-11 11:45:00,
2013-04-11 07:50:00,61.8,59.5,29.88,WSW,245,0.0,1.0,92,0.00,,CLR,0.00,VWS V14.00,2013-04-11 11:50:00,
2013-04-11 07:55:00,62.0,59.7,29.88,WSW,245,0.0,1.0,92,0.00,,CLR,0.00,VWS V14.00,2013-04-11 11:55:00,
2013-04-11 08:00:00,62.2,59.8,29.88,WSW,245,0.0,1.0,92,0.00,,CLR,0.00,VWS V14.00,2013-04-11 12:00:00,
2013-04-11 08:05:00,62.4,59.7,29.88,WSW,243,0.0,1.0,91,0.00,,CLR,0.00,VWS V14.00,2013-04-11 12:05:00,
2013-04-11 08:10:00,62.6,60.2,29.88,WSW,243,0.0,2.0,92,0.00,,CLR,0.00,VWS V14.00,2013-04-11 12:10:00,
2013-04-11 08:15:00,62.9,60.2,29.88,WSW,243,0.0,2.0,91,0.00,,CLR,0.00,VWS V14.00,2013-04-11 12:15:00,
2013-04-11 08:20:00,63.1,60.4,29.89,South,190,0.0,4.0,91,0.00,,CLR,0.00,VWS V14.00,2013-04-11 12:20:00,
2013-04-11 08:25:00,63.2,60.5,29.89,South,190,0.0,4.0,91,0.00,,CLR,0.00,VWS V14.00,2013-04-11 12:25:00,
2013-04-11 08:30:00,63.3,60.6,29.89,SSW,210,3.0,5.0,91,0.00,,CLR,0.00,VWS V14.00,2013-04-11 12:30:00,
2013-04-11 08:35:00,63.4,60.7,29.89,South,186,2.0,7.0,91,0.00,,CLR,0.00,VWS V14.00,2013-04-11 12:35:00,
2013-04-11 08:40:00,63.5,60.5,29.89,SSW,200,2.0,7.0,90,0.00,,CLR,0.00,VWS V14.00,2013-04-11 12:40:00,
2013-04-11 08:45:00,63.7,61.0,29.89,SSW,199,0.0,7.0,91,0.00,,CLR,0.00,VWS V14.00,2013-04-11 12:45:00,
2013-04-11 08:50:00,63.9,60.9,29.89,SSW,199,0.0,7.0,90,0.00,,CLR,0.00,VWS V14.00,2013-04-11 12:50:00,
2013-04-11 08:55:00,64.1,61.1,29.89,South,183,0.0,7.0,90,0.00,,CLR,0.00,VWS V14.00,2013-04-11 12:55:00,
2013-04-11 09:00:00,64.3,61.3,29.89,SSW,210,0.0,7.0,90,0.00,,CLR,0.00,VWS V14.00,2013-04-11 13:00:00,
2013-04-11 09:05:00,64.6,61.3,29.89,SSE,148,4.0,4.0,89,0.00,,CLR,0.00,VWS V14.00,2013-04-11 13:05:00,
2013-04-11 09:10:00,64.7,61.4,29.89,SSW,200,3.0,5.0,89,0.00,,CLR,0.00,VWS V14.00,2013-04-11 13:10:00,
2013-04-11 09:15:00,65.0,61.7,29.89,SSW,211,6.0,15.0,89,0.00,,CLR,0.00,VWS V14.00,2013-04-11 13:15:00,
2013-04-11 09:20:00,65.0,61.7,29.89,South,183,0.0,15.0,89,0.00,,CLR,0.00,VWS V14.00,2013-04-11 13:20:00,
2013-04-11 09:25:00,65.3,61.7,29.89,SSE,163,2.0,15.0,88,0.00,,CLR,0.00,VWS V14.00,2013-04-11 13:25:00,
2013-04-11 09:30:00,65.5,61.9,29.89,SSW,199,3.0,15.0,88,0.00,,CLR,0.00,VWS V14.00,2013-04-11 13:30:00,
2013-04-11 09:35:00,65.6,61.6,29.89,South,177,3.0,6.0,87,0.00,,CLR,0.00,VWS V14.00,2013-04-11 13:35:00,
2013-04-11 09:40:00,65.7,61.7,29.89,SW,235,4.0,9.0,87,0.00,,CLR,0.00,VWS V14.00,2013-04-11 13:40:00,
2013-04-11 09:45:00,65.8,61.5,29.89,South,172,3.0,10.0,86,0.00,,CLR,0.00,VWS V14.00,2013-04-11 13:45:00,
2013-04-11 09:50:00,65.8,61.8,29.89,SSW,193,1.0,10.0,87,0.00,,CLR,0.00,VWS V14.00,2013-04-11 13:50:00,
2013-04-11 09:55:00,65.8,61.5,29.89,South,174,3.0,10.0,86,0.00,,CLR,0.00,VWS V14.00,2013-04-11 13:55:00,
2013-04-11 10:00:00,65.9,61.6,29.89,South,170,2.0,10.0,86,0.00,,CLR,0.00,VWS V14.00,2013-04-11 14:00:00,
2013-04-11 10:05:00,65.8,61.5,29.89,SSW,194,3.0,8.0,86,0.00,,CLR,0.00,VWS V14.00,2013-04-11 14:05:00,
2013-04-11 10:10:00,65.7,61.4,29.89,SSW,194,0.0,8.0,86,0.00,,CLR,0.00,VWS V14.00,2013-04-11 14:10:00,
2013-04-11 10:15:00,66.5,62.5,29.89,SW,231,0.0,8.0,87,0.00,,CLR,0.00,VWS V14.00,2013-04-11 14:15:00,
2013-04-11 10:20:00,67.1,62.5,29.89,SSW,207,2.0,9.0,85,0.00,,CLR,0.00,VWS V14.00,2013-04-11 14:20:00,
2013-04-11 10:25:00,67.6,62.6,29.89,SSE,158,3.0,11.0,84,0.00,,CLR,0.00,VWS V14.00,2013-04-11 14:25:00,
2013-04-11 10:30:00,67.9,62.5,29.89,SW,216,2.0,11.0,83,0.00,,CLR,0.00,VWS V14.00,2013-04-11 14:30:00,
2013-04-11 10:35:00,68.6,63.2,29.88,SSE,149,0.0,6.0,83,0.00,,CLR,0.00,VWS V14.00,2013-04-11 14:35:00,
2013-04-11 10:40:00,69.4,63.3,29.88,SSE,166,1.0,6.0,81,0.00,,CLR,0.00,VWS V14.00,2013-04-11 14:40:00,
2013-04-11 10:45:00,69.8,63.4,29.88,South,179,2.0,6.0,80,0.00,,CLR,0.00,VWS V14.00,2013-04-11 14:45:00,
2013-04-11 10:50:00,69.7,62.9,29.88,SSW,198,3.0,14.0,79,0.00,,CLR,0.00,VWS V14.00,2013-04-11 14:50:00,
2013-04-11 10:55:00,69.9,63.5,29.88,South,181,3.0,14.0,80,0.00,,CLR,0.00,VWS V14.00,2013-04-11 14:55:00,
2013-04-11 11:00:00,70.6,63.4,29.88,SSE,155,1.0,14.0,78,0.00,,CLR,0.00,VWS V14.00,2013-04-11 15:00:00,
2013-04-11 11:05:00,71.3,63.7,29.88,South,176,4.0,10.0,77,0.00,,CLR,0.00,VWS V14.00,2013-04-11 15:05:00,
2013-04-11 11:10:00,71.7,63.7,29.88,South,190,2.0,10.0,76,0.00,,CLR,0.00,VWS V14.00,2013-04-11 15:10:00,
2013-04-11 11:15:00,72.1,63.8,29.88,SSE,156,0.0,10.0,75,0.00,,CLR,0.00,VWS V14.00,2013-04-11 15:15:00,
2013-04-11 11:20:00,72.7,64.3,29.88,SE,127,2.0,10.0,75,0.00,,CLR,0.00,VWS V14.00,2013-04-11 15:20:00,
2013-04-11 11:25:00,73.1,64.3,29.88,SSW,204,1.0,10.0,74,0.00,,CLR,0.00,VWS V14.00,2013-04-11 15:25:00,
2013-04-11 11:30:00,73.5,64.7,29.88,South,172,1.0,10.0,74,0.00,,CLR,0.00,VWS V14.00,2013-04-11 15:30:00,
2013-04-11 11:35:00,73.9,65.1,29.88,SSE,158,3.0,4.0,74,0.00,,CLR,0.00,VWS V14.00,2013-04-11 15:35:00,
2013-04-11 11:40:00,74.3,64.3,29.88,SE,143,3.0,7.0,71,0.00,,CLR,0.00,VWS V14.00,2013-04-11 15:40:00,
2013-04-11 11:45:00,74.3,64.3,29.88,SE,137,3.0,7.0,71,0.00,,CLR,0.00,VWS V14.00,2013-04-11 15:45:00,
2013-04-11 11:50:00,74.4,64.4,29.87,SW,214,7.0,7.0,71,0.00,,CLR,0.00,VWS V14.00,2013-04-11 15:50:00,
2013-04-11 11:55:00,74.1,64.1,29.87,SSW,204,10.0,20.0,71,0.00,,CLR,0.00,VWS V14.00,2013-04-11 15:55:00,
2013-04-11 12:00:00,73.6,64.0,29.87,SSE,160,3.0,20.0,72,0.00,,CLR,0.00,VWS V14.00,2013-04-11 16:00:00,
2013-04-11 12:05:00,74.0,64.8,29.87,South,183,2.0,3.0,73,0.00,,CLR,0.00,VWS V14.00,2013-04-11 16:05:00,
2013-04-11 12:10:00,75.2,64.8,29.87,SSW,213,1.0,4.0,70,0.00,,CLR,0.00,VWS V14.00,2013-04-11 16:10:00,
2013-04-11 12:15:00,75.6,64.7,29.87,SSE,158,4.0,6.0,69,0.00,,CLR,0.00,VWS V14.00,2013-04-11 16:15:00,
2013-04-11 12:20:00,75.8,64.5,29.86,SW,215,1.0,6.0,68,0.00,,CLR,0.00,VWS V14.00,2013-04-11 16:20:00,
2013-04-11 12:25:00,76.2,65.7,29.86,SSE,159,0.0,6.0,70,0.00,,CLR,0.00,VWS V14.00,2013-04-11 16:25:00,
2013-04-11 12:30:00,76.5,65.2,29.86,South,175,1.0,6.0,68,0.00,,CLR,0.00,VWS V14.00,2013-04-11 16:30:00,
2013-04-11 12:35:00,76.8,66.3,29.85,SSW,200,4.0,5.0,70,0.00,,CLR,0.00,VWS V14.00,2013-04-11 16:35:00,
2013-04-11 12:40:00,77.4,65.2,29.85,SSW,194,4.0,7.0,66,0.00,,CLR,0.00,VWS V14.00,2013-04-11 16:40:00,
2013-04-11 12:45:00,77.1,65.3,29.85,SSW,192,3.0,12.0,67,0.00,,CLR,0.00,VWS V14.00,2013-04-11 16:45:00,
2013-04-11 12:50:00,76.8,65.9,29.85,SSE,155,1.0,12.0,69,0.00,,CLR,0.00,VWS V14.00,2013-04-11 16:50:00,
2013-04-11 12:55:00,76.8,65.0,29.85,SSE,153,1.0,12.0,67,0.00,,CLR,0.00,VWS V14.00,2013-04-11 16:55:00,
2013-04-11 13:00:00,77.2,65.8,29.85,South,174,5.0,12.0,68,0.00,,CLR,0.00,VWS V14.00,2013-04-11 17:00:00,
2013-04-11 13:05:00,77.0,64.8,29.84,South,170,1.0,3.0,66,0.00,,CLR,0.00,VWS V14.00,2013-04-11 17:05:00,
2013-04-11 13:10:00,77.1,64.9,29.84,SE,136,0.0,10.0,66,0.00,,CLR,0.00,VWS V14.00,2013-04-11 17:10:00,
2013-04-11 13:15:00,77.6,65.3,29.84,South,169,4.0,16.0,66,0.00,,CLR,0.00,VWS V14.00,2013-04-11 17:15:00,
2013-04-11 13:20:00,77.7,65.0,29.83,ESE,114,3.0,16.0,65,0.00,,CLR,0.00,VWS V14.00,2013-04-11 17:20:00,
2013-04-11 13:25:00,78.0,64.4,29.83,South,181,3.0,16.0,63,0.00,,CLR,0.00,VWS V14.00,2013-04-11 17:25:00,
2013-04-11 13:30:00,77.6,64.9,29.83,South,179,1.0,16.0,65,0.00,,CLR,0.00,VWS V14.00,2013-04-11 17:30:00,
2013-04-11 13:35:00,78.0,65.3,29.83,South,184,2.0,10.0,65,0.00,,CLR,0.00,VWS V14.00,2013-04-11 17:35:00,
2013-04-11 13:40:00,78.3,65.1,29.83,South,191,3.0,10.0,64,0.00,,CLR,0.00,VWS V14.00,2013-04-11 17:40:00,
2013-04-11 13:45:00,78.2,65.0,29.83,SE,141,1.0,10.0,64,0.00,,CLR,0.00,VWS V14.00,2013-04-11 17:45:00,
2013-04-11 13:50:00,78.6,65.0,29.82,SSE,155,5.0,10.0,63,0.00,,CLR,0.00,VWS V14.00,2013-04-11 17:50:00,
2013-04-11 13:55:00,78.9,65.2,29.82,SSW,193,13.0,13.0,63,0.00,,CLR,0.00,VWS V14.00,2013-04-11 17:55:00,
2013-04-11 14:00:00,78.9,64.8,29.82,SE,139,3.0,15.0,62,0.00,,CLR,0.00,VWS V14.00,2013-04-11 18:00:00,
2013-04-11 14:05:00,79.5,64.9,29.81,SSE,159,0.0,3.0,61,0.00,,CLR,0.00,VWS V14.00,2013-04-11 18:05:00,
2013-04-11 14:10:00,79.3,65.6,29.81,South,176,3.0,11.0,63,0.00,,CLR,0.00,VWS V14.00,2013-04-11 18:10:00,
2013-04-11 14:15:00,79.0,64.4,29.81,South,191,3.0,15.0,61,0.00,,CLR,0.00,VWS V14.00,2013-04-11 18:15:00,
2013-04-11 14:20:00,78.4,64.3,29.80,SSW,196,9.0,15.0,62,0.00,,CLR,0.00,VWS V14.00,2013-04-11 18:20:00,
2013-04-11 14:25:00,78.7,65.1,29.80,SSE,168,1.0,15.0,63,0.00,,CLR,0.00,VWS V14.00,2013-04-11 18:25:00,
2013-04-11 14:30:00,79.8,66.6,29.80,South,181,1.0,15.0,64,0.00,,CLR,0.00,VWS V14.00,2013-04-11 18:30:00,
2013-04-11 14:35:00,80.6,65.0,29.80,SSE,149,0.0,5.0,59,0.00,,CLR,0.00,VWS V14.00,2013-04-11 18:35:00,
2013-04-11 14:40:00,79.7,64.1,29.80,WSW,240,4.0,11.0,59,0.00,,CLR,0.00,VWS V14.00,2013-04-11 18:40:00,
2013-04-11 14:45:00,79.2,64.6,29.80,South,169,0.0,11.0,61,0.00,,CLR,0.00,VWS V14.00,2013-04-11 18:45:00,
2013-04-11 14:50:00,79.8,64.2,29.79,SSW,201,4.0,11.0,59,0.00,,CLR,0.00,VWS V14.00,2013-04-11 18:50:00,
2013-04-11 14:55:00,80.6,64.5,29.79,SSE,163,3.0,16.0,58,0.00,,CLR,0.00,VWS V14.00,2013-04-11 18:55:00,
2013-04-11 15:00:00,79.9,64.3,29.79,SSE,167,4.0,16.0,59,0.00,,CLR,0.00,VWS V14.00,2013-04-11 19:00:00,
2013-04-11 15:05:00,79.5,64.4,29.78,SSW,195,3.0,5.0,60,0.00,,CLR,0.00,VWS V14.00,2013-04-11 19:05:00,
2013-04-11 15:10:00,79.8,63.7,29.78,SSW,210,2.0,14.0,58,0.00,,CLR,0.00,VWS V14.00,2013-04-11 19:10:00,
2013-04-11 15:15:00,79.6,64.0,29.78,South,189,4.0,14.0,59,0.00,,CLR,0.00,VWS V14.00,2013-04-11 19:15:00,
2013-04-11 15:20:00,79.0,63.9,29.77,SE,141,1.0,14.0,60,0.00,,CLR,0.00,VWS V14.00,2013-04-11 19:20:00,
2013-04-11 15:25:00,79.5,64.9,29.77,SE,141,1.0,14.0,61,0.00,,CLR,0.00,VWS V14.00,2013-04-11 19:25:00,
2013-04-11 15:30:00,80.1,65.0,29.77,SSW,196,1.0,14.0,60,0.00,,CLR,0.00,VWS V14.00,2013-04-11 19:30:00,
2013-04-11 15:35:00,79.7,64.1,29.76,South,169,0.0,4.0,59,0.00,,CLR,0.00,VWS V14.00,2013-04-11 19:35:00,
2013-04-11 15:40:00,79.4,63.8,29.76,South,191,5.0,9.0,59,0.00,,CLR,0.00,VWS V14.00,2013-04-11 19:40:00,
2013-04-11 15:45:00,79.2,64.6,29.76,SE,129,3.0,9.0,61,0.00,,CLR,0.00,VWS V14.00,2013-04-11 19:45:00,
2013-04-11 15:50:00,79.3,64.7,29.76,SSE,155,1.0,9.0,61,0.00,,CLR,0.00,VWS V14.00,2013-04-11 19:50:00,
2013-04-11 15:55:00,80.0,65.4,29.76,SSW,198,0.0,9.0,61,0.00,,CLR,0.00,VWS V14.00,2013-04-11 19:55:00,
2013-04-11 16:00:00,80.4,66.2,29.76,SSE,152,3.0,9.0,62,0.00,,CLR,0.00,VWS V14.00,2013-04-11 20:00:00,
2013-04-11 16:05:00,80.7,65.1,29.74,SE,129,1.0,1.0,59,0.00,,CLR,0.00,VWS V14.00,2013-04-11 20:05:00,
2013-04-11 16:10:00,81.2,65.0,29.74,SE,146,2.0,6.0,58,0.00,,CLR,0.00,VWS V14.00,2013-04-11 20:10:00,
2013-04-11 16:15:00,81.1,65.4,29.74,SSE,155,0.0,6.0,59,0.00,,CLR,0.00,VWS V14.00,2013-04-11 20:15:00,
2013-04-11 16:20:00,81.1,64.4,29.73,South,188,3.0,10.0,57,0.00,,CLR,0.00,VWS V14.00,2013-04-11 20:20:00,
2013-04-11 16:25:00,81.0,64.8,29.73,SSW,213,3.0,10.0,58,0.00,,CLR,0.00,VWS V14.00,2013-04-11 20:25:00,
2013-04-11 16:30:00,81.6,63.9,29.73,South,185,0.0,17.0,55,0.00,,CLR,0.00,VWS V14.00,2013-04-11 20:30:00,
2013-04-11 16:35:00,82.5,64.7,29.71,South,181,0.0,9.0,55,0.00,,CLR,0.00,VWS V14.00,2013-04-11 20:35:00,
2013-04-11 16:40:00,82.2,64.4,29.71,South,176,6.0,13.0,55,0.00,,CLR,0.00,VWS V14.00,2013-04-11 20:40:00,
2013-04-11 16:45:00,81.7,63.5,29.71,SSW,200,3.0,14.0,54,0.00,,CLR,0.00,VWS V14.00,2013-04-11 20:45:00,
2013-04-11 16:50:00,81.1,63.9,29.71,South,175,4.0,14.0,56,0.00,,CLR,0.00,VWS V14.00,2013-04-11 20:50:00,
2013-04-11 16:55:00,80.9,63.8,29.71,SSE,165,3.0,14.0,56,0.00,,CLR,0.00,VWS V14.00,2013-04-11 20:55:00,
2013-04-11 17:00:00,81.3,64.6,29.71,SSE,167,0.0,14.0,57,0.00,,CLR,0.00,VWS V14.00,2013-04-11 21:00:00,
2013-04-11 17:05:00,81.4,64.7,29.70,ESE,118,1.0,4.0,57,0.00,,CLR,0.00,VWS V14.00,2013-04-11 21:05:00,
2013-04-11 17:10:00,81.0,64.8,29.70,ESE,120,1.0,4.0,58,0.00,,CLR,0.00,VWS V14.00,2013-04-11 21:10:00,
2013-04-11 17:15:00,80.6,64.5,29.70,SSE,157,0.0,4.0,58,0.00,,CLR,0.00,VWS V14.00,2013-04-11 21:15:00,
2013-04-11 17:20:00,80.4,64.3,29.70,SSE,157,3.0,4.0,58,0.00,,CLR,0.00,VWS V14.00,2013-04-11 21:20:00,
2013-04-11 17:25:00,80.1,64.0,29.70,South,170,0.0,4.0,58,0.00,,CLR,0.00,VWS V14.00,2013-04-11 21:25:00,
2013-04-11 17:30:00,79.7,63.6,29.70,SSE,155,0.0,5.0,58,0.00,,CLR,0.00,VWS V14.00,2013-04-11 21:30:00,
2013-04-11 17:35:00,79.3,63.7,29.70,SSE,154,2.0,3.0,59,0.00,,CLR,0.00,VWS V14.00,2013-04-11 21:35:00,
2013-04-11 17:40:00,78.9,64.3,29.70,SSE,165,2.0,4.0,61,0.00,,CLR,0.00,VWS V14.00,2013-04-11 21:40:00,
2013-04-11 17:45:00,78.7,64.1,29.70,SSE,165,1.0,4.0,61,0.00,,CLR,0.00,VWS V14.00,2013-04-11 21:45:00,
2013-04-11 17:50:00,78.9,64.8,29.70,SSE,165,0.0,4.0,62,0.00,,CLR,0.00,VWS V14.00,2013-04-11 21:50:00,
2013-04-11 17:55:00,79.2,65.1,29.70,SSE,165,1.0,4.0,62,0.00,,CLR,0.00,VWS V14.00,2013-04-11 21:55:00,
2013-04-11 18:00:00,79.3,65.2,29.70,SSE,165,1.0,4.0,62,0.00,,CLR,0.00,VWS V14.00,2013-04-11 22:00:00,
2013-04-11 18:05:00,79.2,65.1,29.70,SSE,165,0.0,3.0,62,0.00,,CLR,0.00,VWS V14.00,2013-04-11 22:05:00,
2013-04-11 18:10:00,78.7,64.6,29.70,SSE,165,2.0,5.0,62,0.00,,CLR,0.00,VWS V14.00,2013-04-11 22:10:00,
2013-04-11 18:15:00,78.5,64.4,29.70,SSE,156,0.0,5.0,62,0.00,,CLR,0.00,VWS V14.00,2013-04-11 22:15:00,
2013-04-11 18:20:00,78.2,64.6,29.70,SSE,157,0.0,5.0,63,0.00,,CLR,0.00,VWS V14.00,2013-04-11 22:20:00,
2013-04-11 18:25:00,78.0,64.4,29.70,SSE,157,3.0,5.0,63,0.00,,CLR,0.00,VWS V14.00,2013-04-11 22:25:00,
2013-04-11 18:30:00,77.7,64.6,29.70,SSW,194,0.0,5.0,64,0.00,,CLR,0.00,VWS V14.00,2013-04-11 22:30:00,
2013-04-11 18:35:00,77.5,64.4,29.69,SSE,150,2.0,3.0,64,0.00,,CLR,0.00,VWS V14.00,2013-04-11 22:35:00,
2013-04-11 18:40:00,77.3,64.2,29.69,SSE,150,1.0,4.0,64,0.00,,CLR,0.00,VWS V14.00,2013-04-11 22:40:00,
2013-04-11 18:45:00,77.1,64.4,29.69,SSE,150,2.0,4.0,65,0.00,,CLR,0.00,VWS V14.00,2013-04-11 22:45:00,
2013-04-11 18:50:00,76.9,64.7,29.68,ESE,123,0.0,4.0,66,0.00,,CLR,0.00,VWS V14.00,2013-04-11 22:50:00,
2013-04-11 18:55:00,76.7,64.9,29.68,SE,141,4.0,5.0,67,0.00,,CLR,0.00,VWS V14.00,2013-04-11 22:55:00,
2013-04-11 19:00:00,75.9,65.4,29.68,SE,126,0.0,6.0,70,0.00,,CLR,0.00,VWS V14.00,2013-04-11 23:00:00,
2013-04-11 19:05:00,75.3,65.3,29.68,East,100,0.0,1.0,71,0.00,,CLR,0.00,VWS V14.00,2013-04-11 23:05:00,
2013-04-11 19:10:00,74.9,65.3,29.68,NE,37,0.0,3.0,72,0.00,,CLR,0.00,VWS V14.00,2013-04-11 23:10:00,
2013-04-11 19:15:00,74.5,65.7,29.68,North,349,0.0,3.0,74,0.00,,CLR,0.00,VWS V14.00,2013-04-11 23:15:00,
2013-04-11 19:20:00,74.2,65.8,29.68,NNW,342,0.0,3.0,75,0.00,,CLR,0.00,VWS V14.00,2013-04-11 23:20:00,
2013-04-11 19:25:00,74.1,65.3,29.68,WNW,285,0.0,3.0,74,0.00,,CLR,0.00,VWS V14.00,2013-04-11 23:25:00,
2013-04-11 19:30:00,74.0,65.2,29.68,West,273,0.0,3.0,74,0.00,,CLR,0.00,VWS V14.00,2013-04-11 23:30:00,
2013-04-11 19:35:00,74.0,65.2,29.68,West,273,0.0,0.0,74,0.00,,CLR,0.00,VWS V14.00,2013-04-11 23:35:00,
2013-04-11 19:40:00,73.9,65.1,29.68,West,273,0.0,0.0,74,0.00,,CLR,0.00,VWS V14.00,2013-04-11 23:40:00,
2013-04-11 19:45:00,73.8,65.4,29.68,West,273,0.0,0.0,75,0.00,,CLR,0.00,VWS V14.00,2013-04-11 23:45:00,
2013-04-11 19:50:00,73.7,65.7,29.68,WNW,290,0.0,1.0,76,0.00,,CLR,0.00,VWS V14.00,2013-04-11 23:50:00,
2013-04-11 19:55:00,73.5,65.5,29.68,WNW,298,0.0,1.0,76,0.00,,CLR,0.00,VWS V14.00,2013-04-11 23:55:00,
2013-04-11 20:00:00,73.4,65.4,29.68,WNW,298,0.0,1.0,76,0.00,,CLR,0.00,VWS V14.00,2013-04-12 00:00:00,
2013-04-11 20:05:00,73.3,65.3,29.67,WNW,298,0.0,0.0,76,0.00,,CLR,0.00,VWS V14.00,2013-04-12 00:05:00,
2013-04-11 20:10:00,73.2,65.6,29.67,WNW,298,0.0,1.0,77,0.00,,CLR,0.00,VWS V14.00,2013-04-12 00:10:00,
2013-04-11 20:15:00,73.1,65.5,29.67,WNW,298,0.0,1.0,77,0.00,,CLR,0.00,VWS V14.00,2013-04-12 00:15:00,
2013-04-11 20:20:00,73.0,65.4,29.67,WNW,301,0.0,1.0,77,0.00,,CLR,0.00,VWS V14.00,2013-04-12 00:20:00,
2013-04-11 20:25:00,72.9,65.7,29.67,WNW,301,0.0,1.0,78,0.00,,CLR,0.00,VWS V14.00,2013-04-12 00:25:00,
2013-04-11 20:30:00,72.7,65.4,29.67,WNW,301,0.0,1.0,78,0.00,,CLR,0.00,VWS V14.00,2013-04-12 00:30:00,
2013-04-11 20:35:00,72.5,65.3,29.67,SSW,206,0.0,0.0,78,0.00,,CLR,0.00,VWS V14.00,2013-04-12 00:35:00,
2013-04-11 20:40:00,72.2,65.3,29.67,SSW,206,0.0,0.0,79,0.00,,CLR,0.00,VWS V14.00,2013-04-12 00:40:00,
2013-04-11 20:45:00,72.1,65.2,29.67,SSW,206,0.0,1.0,79,0.00,,CLR,0.00,VWS V14.00,2013-04-12 00:45:00,
2013-04-11 20:50:00,71.9,65.4,29.66,SSW,206,0.0,1.0,80,0.00,,CLR,0.00,VWS V14.00,2013-04-12 00:50:00,
2013-04-11 20:55:00,71.8,65.3,29.66,SSW,206,0.0,1.0,80,0.00,,CLR,0.00,VWS V14.00,2013-04-12 00:55:00,
2013-04-11 21:00:00,71.7,65.2,29.66,SSW,205,0.0,1.0,80,0.00,,CLR,0.00,VWS V14.00,2013-04-12 01:00:00,
2013-04-11 21:05:00,71.7,65.6,29.66,SSW,206,0.0,0.0,81,0.00,,CLR,0.00,VWS V14.00,2013-04-12 01:05:00,
2013-04-11 21:10:00,71.6,66.2,29.66,SSW,206,0.0,1.0,83,0.00,,CLR,0.00,VWS V14.00,2013-04-12 01:10:00,
2013-04-11 21:15:00,71.3,66.2,29.66,ESE,110,3.0,3.0,84,0.00,,CLR,0.00,VWS V14.00,2013-04-12 01:15:00,
2013-04-11 21:20:00,71.1,66.0,29.66,ESE,110,0.0,3.0,84,0.00,,CLR,0.00,VWS V14.00,2013-04-12 01:20:00,
2013-04-11 21:25:00,70.9,65.5,29.66,ESE,110,0.0,3.0,83,0.00,,CLR,0.00,VWS V14.00,2013-04-12 01:25:00,
2013-04-11 21:30:00,71.0,65.6,29.66,ESE,110,0.0,3.0,83,0.00,,CLR,0.00,VWS V14.00,2013-04-12 01:30:00,
2013-04-11 21:35:00,71.1,65.7,29.66,ESE,110,0.0,0.0,83,0.00,,CLR,0.00,VWS V14.00,2013-04-12 01:35:00,
2013-04-11 21:40:00,71.2,65.4,29.66,East,97,0.0,2.0,82,0.00,,CLR,0.00,VWS V14.00,2013-04-12 01:40:00,
2013-04-11 21:45:00,71.3,65.5,29.66,ESE,122,3.0,3.0,82,0.00,,CLR,0.00,VWS V14.00,2013-04-12 01:45:00,
2013-04-11 21:50:00,71.2,65.4,29.66,SE,136,2.0,6.0,82,0.00,,CLR,0.00,VWS V14.00,2013-04-12 01:50:00,
2013-04-11 21:55:00,71.0,65.6,29.66,SE,131,2.0,7.0,83,0.00,,CLR,0.00,VWS V14.00,2013-04-12 01:55:00,
2013-04-11 22:00:00,70.8,65.7,29.66,ENE,78,5.0,7.0,84,0.00,,CLR,0.00,VWS V14.00,2013-04-12 02:00:00,
2013-04-11 22:05:00,70.5,65.8,29.66,SE,134,5.0,6.0,85,0.00,,CLR,0.00,VWS V14.00,2013-04-12 02:05:00,
2013-04-11 22:10:00,70.1,65.7,29.66,SE,141,2.0,6.0,86,0.00,,CLR,0.00,VWS V14.00,2013-04-12 02:10:00,
2013-04-11 22:15:00,69.8,65.4,29.66,SE,145,0.0,6.0,86,0.00,,CLR,0.00,VWS V14.00,2013-04-12 02:15:00,
2013-04-11 22:20:00,69.5,65.5,29.66,SSE,167,0.0,6.0,87,0.00,,CLR,0.00,VWS V14.00,2013-04-12 02:20:00,
2013-04-11 22:25:00,69.3,65.6,29.66,SSE,165,1.0,6.0,88,0.00,,CLR,0.00,VWS V14.00,2013-04-12 02:25:00,
2013-04-11 22:30:00,69.1,65.4,29.66,South,172,0.0,6.0,88,0.00,,CLR,0.00,VWS V14.00,2013-04-12 02:30:00,
2013-04-11 22:35:00,68.9,65.5,29.66,SE,138,1.0,5.0,89,0.00,,CLR,0.00,VWS V14.00,2013-04-12 02:35:00,
2013-04-11 22:40:00,68.8,65.8,29.66,ESE,121,0.0,5.0,90,0.00,,CLR,0.00,VWS V14.00,2013-04-12 02:40:00,
2013-04-11 22:45:00,68.6,65.6,29.66,ESE,121,3.0,5.0,90,0.00,,CLR,0.00,VWS V14.00,2013-04-12 02:45:00,
2013-04-11 22:50:00,68.5,65.5,29.66,ESE,121,0.0,5.0,90,0.00,,CLR,0.00,VWS V14.00,2013-04-12 02:50:00,
2013-04-11 22:55:00,68.4,65.7,29.66,SSE,156,0.0,6.0,91,0.00,,CLR,0.00,VWS V14.00,2013-04-12 02:55:00,
2013-04-11 23:00:00,68.4,65.7,29.66,SSE,155,0.0,6.0,91,0.00,,CLR,0.00,VWS V14.00,2013-04-12 03:00:00,
2013-04-11 23:05:00,68.4,66.0,29.66,South,183,0.0,2.0,92,0.00,,CLR,0.00,VWS V14.00,2013-04-12 03:05:00,
2013-04-11 23:10:00,68.4,66.0,29.66,South,183,0.0,2.0,92,0.00,,CLR,0.00,VWS V14.00,2013-04-12 03:10:00,
2013-04-11 23:15:00,68.4,66.0,29.66,South,169,2.0,3.0,92,0.00,,CLR,0.00,VWS V14.00,2013-04-12 03:15:00,
2013-04-11 23:20:00,68.4,66.0,29.66,SSE,161,2.0,4.0,92,0.00,,CLR,0.00,VWS V14.00,2013-04-12 03:20:00,
2013-04-11 23:25:00,68.5,66.4,29.66,SSE,152,1.0,4.0,93,0.00,,CLR,0.00,VWS V14.00,2013-04-12 03:25:00,
2013-04-11 23:30:00,68.6,66.5,29.66,SE,146,0.0,5.0,93,0.00,,CLR,0.00,VWS V14.00,2013-04-12 03:30:00,
2013-04-11 23:35:00,68.6,66.2,29.66,SSE,162,3.0,5.0,92,0.00,,CLR,0.00,VWS V14.00,2013-04-12 03:35:00,
2013-04-11 23:40:00,68.8,66.7,29.66,SE,127,2.0,6.0,93,0.00,,CLR,0.00,VWS V14.00,2013-04-12 03:40:00,
2013-04-11 23:45:00,68.8,66.7,29.66,SE,145,0.0,6.0,93,0.00,,CLR,0.00,VWS V14.00,2013-04-12 03:45:00,
2013-04-11 23:50:00,68.8,66.7,29.65,South,170,1.0,6.0,93,0.00,,CLR,0.00,VWS V14.00,2013-04-12 03:50:00,
2013-04-11 23:55:00,68.9,66.8,29.65,SSE,165,1.0,6.0,93,0.00,,CLR,0.00,VWS V14.00,2013-04-12 03:55:00,